Location: Hains Lake
(37.8540°N, 99.8578°W)
Time: 03:31:06
(UTC+00:00)

Okean 3 - Pass Details

Date: 11 December 2019
Orbit: 577 x 600 km, 82.5° (Epoch: 27 January)

Event Time Altitude Azimuth Distance (km) Brightness Sun altitude
Rises 12:35:33 0° 352° (N) 2,804 6.7 -13.3°
Reaches altitude 10° 12:37:45 10° 353° (N) 1,903 5.8 -12.9°
Maximum altitude 12:41:57 89° 272° (W) 588 3.4 -12.1°
Drops below altitude 10° 12:46:09 10° 175° (S) 1,900 6.4 -11.3°
Sets 12:48:20 0° 175° (S) 2,800 7.3 -10.9°
